Hourly Data Report for January 09, 2017

PORT ALBERNI (AUT)
BRITISH COLUMBIA

49°18'59.700" N
124°55'36.600" W
76.20 m
1036B06
71475
WQC

Download Data

Hourly Data (January 2017)
Hourly Data Report for January 9, 2017
TIME
LST
Temp Definition
°C
Dew Point Definition
°C
Rel Hum Definition
%
Precip. Amount Definition
mm

Wind Dir Definition
10's deg

Wind Spd Definition
km/h
Visibility Definition
km
Stn Press Definition
kPa
Hmdx Definition


Wind Chill Definition


Weather Definition


00:00 0.1 -1.5 89 0.2 27 4   98.74     LegendNANA
01:00 0.1 -1.5 89 0.0 14 3   98.76     LegendNANA
02:00 0.1 -1.6 89 0.2   0   98.82     LegendNANA
03:00 0.2 -1.4 89 0.3 9 4   98.96     LegendNANA
04:00 0.2 -1.4 89 0.0 33 3   99.01     LegendNANA
05:00 0.3 -1.3 89 0.0 28 4   99.01     LegendNANA
06:00 0.0 -1.7 89 0.0 15 5   98.99   -2 LegendNANA
07:00 0.0 -1.7 89 0.2 5 4   99.05   -1 LegendNANA
08:00 -0.1 -1.7 89 0.0 4 1   99.14   0 LegendNANA
09:00 0.0 -1.6 89 0.0 31 4   99.22   -1 LegendNANA
10:00 0.2 -1.4 89 0.0 25 2   99.30     LegendNANA
11:00 1.0 -0.6 89 0.0 28 2   99.37     LegendNANA
12:00 1.4 -0.3 89 0.0 29 2   99.38     LegendNANA
13:00 2.2 0.5 89 0.2 9 4   99.35     LegendNANA
14:00 2.1 0.4 89 0.0 15 2   99.39     LegendNANA
15:00 2.4 0.7 89 1.1   0   99.45     LegendNANA
16:00 1.9 0.2 89 0.0 30 3   99.49     LegendNANA
17:00 1.1 -0.6 89 0.0 8 3   99.51     LegendNANA
18:00 0.4 -1.3 89 0.0 29 3   99.52     LegendNANA
19:00 0.6 -1.1 89 0.0 31 4   99.54     LegendNANA
20:00 0.4 -1.3 89 0.0 19 1   99.55     LegendNANA
21:00 -0.2 -1.9 89 0.0   0   99.57     LegendNANA
22:00 -0.2 -1.8 89 0.0 36 2   99.58   -1 LegendNANA
23:00 -0.2 -1.8 89 0.0 32 4   99.63   -1 LegendNANA

Notes on Data Quality.

Legend

  • E = Estimated
  • M = Missing
  • NA = Not Available*
  • [empty] = Indicates an unobserved value
Date modified: